Satellite: NOAA-12 Catalog number: 21263 Epoch time: 14044.48873738 Element set: 165 Inclination: 098.6761 deg RA of node: 072.6897 deg Eccentricity: 0.0013124 Arg of perigee: 234.4734 deg Mean anomaly: 226.9558 deg Mean motion: 14.25625859 rev/day Decay rate: 8.0e-07 rev/day^2 Epoch rev: 18293 Checksum: 330
Satellite: MET-3/5 Catalog number: 21655 Epoch time: 14044.82602044 Element set: 902 Inclination: 082.5527 deg RA of node: 083.5853 deg Eccentricity: 0.0012350 Arg of perigee: 241.8904 deg Mean anomaly: 118.0970 deg Mean motion: 13.17048797 rev/day Decay rate: 4.38e-06 rev/day^2 Epoch rev: 8174 Checksum: 295
Satellite: MET-2/21 Catalog number: 22782 Epoch time: 14044.77994483 Element set: 976 Inclination: 082.5468 deg RA of node: 271.2227 deg Eccentricity: 0.0021246 Arg of perigee: 249.8713 deg Mean anomaly: 162.0893 deg Mean motion: 13.83724509 rev/day Decay rate: 1.5e-07 rev/day^2 Epoch rev: 3305 Checksum: 316
Satellite: OKEAN-4 Catalog number: 23317 Epoch time: 14044.47438344 Element set: 455 Inclination: 082.5405 deg RA of node: 183.8722 deg Eccentricity: 0.0021784 Arg of perigee: 146.5148 deg Mean anomaly: 324.6166 deg Mean motion: 14.85086965 rev/day Decay rate: 1.988e-05 rev/day^2 Epoch rev: 4474 Checksum: 324
Satellite: NOAA-14 Catalog number: 23455 Epoch time: 14044.46408892 Element set: 646 Inclination: 098.7842 deg RA of node: 130.0702 deg Eccentricity: 0.0009818 Arg of perigee: 038.2802 deg Mean anomaly: 093.7386 deg Mean motion: 14.13948336 rev/day Decay rate: 6.7e-07 rev/day^2 Epoch rev: 98646 Checksum: 329
Satellite: NOAA-15 Catalog number: 25338 Epoch time: 14044.50925972 Element set: 76 Inclination: 098.7460 deg RA of node: 038.6615 deg Eccentricity: 0.0011499 Arg of perigee: 143.5940 deg Mean anomaly: 325.2472 deg Mean motion: 14.25342866 rev/day Decay rate: 1.97e-06 rev/day^2 Epoch rev: 81922 Checksum: 320
Satellite: RESURS Catalog number: 25394 Epoch time: 14044.53002333 Element set: 587 Inclination: 098.3977 deg RA of node: 014.2137 deg Eccentricity: 0.0000426 Arg of perigee: 206.3903 deg Mean anomaly: 261.0215 deg Mean motion: 14.24367305 rev/day Decay rate: 6.4e-07 rev/day^2 Epoch rev: 81071 Checksum: 260
Satellite: FENGYUN1 Catalog number: 25730 Epoch time: 14043.53891142 Element set: 78 Inclination: 098.9036 deg RA of node: 005.5071 deg Eccentricity: 0.0028131 Arg of perigee: 096.8607 deg Mean anomaly: 042.6062 deg Mean motion: 14.11347487 rev/day Decay rate: 3.996e-05 rev/day^2 Epoch rev: 75993 Checksum: 310
Satellite: OKEAN-0 Catalog number: 25860 Epoch time: 14044.11064265 Element set: 173 Inclination: 098.0275 deg RA of node: 008.8512 deg Eccentricity: 0.0002116 Arg of perigee: 103.7733 deg Mean anomaly: 311.5914 deg Mean motion: 14.74968519 rev/day Decay rate: 8.76e-06 rev/day^2 Epoch rev: 78386 Checksum: 300
Satellite: NOAA-16 Catalog number: 26536 Epoch time: 14044.47243031 Element set: 564 Inclination: 099.0068 deg RA of node: 104.2067 deg Eccentricity: 0.0011039 Arg of perigee: 170.8184 deg Mean anomaly: 314.2819 deg Mean motion: 14.12987292 rev/day Decay rate: 9.8e-07 rev/day^2 Epoch rev: 69064 Checksum: 302
Satellite: NOAA-17 Catalog number: 27453 Epoch time: 14044.54095001 Element set: 468 Inclination: 098.3125 deg RA of node: 050.7832 deg Eccentricity: 0.0012130 Arg of perigee: 172.0808 deg Mean anomaly: 297.5009 deg Mean motion: 14.24686870 rev/day Decay rate: 1.42e-06 rev/day^2 Epoch rev: 60508 Checksum: 284
Satellite: NOAA-18 Catalog number: 28654 Epoch time: 14044.52834571 Element set: 951 Inclination: 099.1353 deg RA of node: 021.6394 deg Eccentricity: 0.0013468 Arg of perigee: 249.4648 deg Mean anomaly: 216.7716 deg Mean motion: 14.11946171 rev/day Decay rate: 9.6e-07 rev/day^2 Epoch rev: 45011 Checksum: 313
Satellite: NOAA-19 Catalog number: 33591 Epoch time: 14044.53069319 Element set: 124 Inclination: 098.9332 deg RA of node: 350.0257 deg Eccentricity: 0.0015103 Arg of perigee: 107.8981 deg Mean anomaly: 359.4335 deg Mean motion: 14.11638352 rev/day Decay rate: 2.89e-06 rev/day^2 Epoch rev: 25854 Checksum: 306
/EX SB KEPS @ AMSAT $ORB14044.M Orbital Elements 14044.MISC
HR AMSAT ORBITAL ELEMENTS FOR MANNED AND MISCELLANEOUS SATELLITES FROM WA5QGD FORT WORTH,TX February 13, 2014 BID: ORB14044.M TO ALL RADIO AMATEURS BT
Satellite: HUBBLE Catalog number: 20580 Epoch time: 14043.67167269 Element set: 436 Inclination: 028.4706 deg RA of node: 135.2719 deg Eccentricity: 0.0003488 Arg of perigee: 041.3350 deg Mean anomaly: 078.4030 deg Mean motion: 15.04663330 rev/day Decay rate: 4.427e-05 rev/day^2 Epoch rev: 10594 Checksum: 275
Satellite: ISS Catalog number: 25544 Epoch time: 14044.86373184 Element set: 675 Inclination: 051.6508 deg RA of node: 350.9295 deg Eccentricity: 0.0004097 Arg of perigee: 132.2628 deg Mean anomaly: 263.3403 deg Mean motion: 15.50310551 rev/day Decay rate: 1.5914e-04 rev/day^2 Epoch rev: 87219 Checksum: 294
Satellite: CO-58 Catalog number: 28895 Epoch time: 14043.55927163 Element set: 694 Inclination: 097.8451 deg RA of node: 251.8382 deg Eccentricity: 0.0018314 Arg of perigee: 047.5148 deg Mean anomaly: 312.7598 deg Mean motion: 14.61559101 rev/day Decay rate: 1.471e-05 rev/day^2 Epoch rev: 44204 Checksum: 327
Satellite: FALCON Catalog number: 30776 Epoch time: 14044.50260880 Element set: 801 Inclination: 035.4297 deg RA of node: 158.2417 deg Eccentricity: 0.0001210 Arg of perigee: 232.5788 deg Mean anomaly: 220.5672 deg Mean motion: 15.13720884 rev/day Decay rate: 1.1515e-04 rev/day^2 Epoch rev: 38196 Checksum: 281
Satellite: MAST Catalog number: 31126 Epoch time: 14043.94917872 Element set: 972 Inclination: 097.9030 deg RA of node: 031.4233 deg Eccentricity: 0.0092899 Arg of perigee: 022.8105 deg Mean anomaly: 030.6233 deg Mean motion: 14.54966166 rev/day Decay rate: 1.250e-05 rev/day^2 Epoch rev: 36232 Checksum: 286
Satellite: CAPE1 Catalog number: 31130 Epoch time: 14044.50291523 Element set: 977 Inclination: 097.9226 deg RA of node: 028.4611 deg Eccentricity: 0.0100533 Arg of perigee: 038.1649 deg Mean anomaly: 322.6612 deg Mean motion: 14.54010824 rev/day Decay rate: 2.068e-05 rev/day^2 Epoch rev: 36183 Checksum: 268
Satellite: COMPASS Catalog number: 32787 Epoch time: 14044.79376965 Element set: 856 Inclination: 097.7189 deg RA of node: 101.8282 deg Eccentricity: 0.0013512 Arg of perigee: 224.5276 deg Mean anomaly: 135.4855 deg Mean motion: 14.86846747 rev/day Decay rate: 3.937e-05 rev/day^2 Epoch rev: 31384 Checksum: 349
Satellite: AAUSAT2 Catalog number: 32788 Epoch time: 14044.11307286 Element set: 840 Inclination: 097.7204 deg RA of node: 102.0133 deg Eccentricity: 0.0012943 Arg of perigee: 225.1758 deg Mean anomaly: 134.8407 deg Mean motion: 14.87443113 rev/day Decay rate: 4.173e-05 rev/day^2 Epoch rev: 31379 Checksum: 280
Satellite: DO-64 Catalog number: 32789 Epoch time: 14044.18425510 Element set: 877 Inclination: 097.7377 deg RA of node: 107.4851 deg Eccentricity: 0.0012442 Arg of perigee: 213.6912 deg Mean anomaly: 208.4578 deg Mean motion: 14.91192068 rev/day Decay rate: 9.081e-05 rev/day^2 Epoch rev: 31400 Checksum: 313
Satellite: CO-66 Catalog number: 32791 Epoch time: 14044.44452537 Element set: 836 Inclination: 097.7192 deg RA of node: 100.4929 deg Eccentricity: 0.0013896 Arg of perigee: 228.5055 deg Mean anomaly: 131.4968 deg Mean motion: 14.85723196 rev/day Decay rate: 3.191e-05 rev/day^2 Epoch rev: 31367 Checksum: 333
Satellite: RS-30 Catalog number: 32953 Epoch time: 14044.68346352 Element set: 649 Inclination: 082.5023 deg RA of node: 278.0144 deg Eccentricity: 0.0019490 Arg of perigee: 065.2302 deg Mean anomaly: 295.0808 deg Mean motion: 12.43042589 rev/day Decay rate: 1.0e-07 rev/day^2 Epoch rev: 25991 Checksum: 289
Satellite: METEOR-M Catalog number: 35865 Epoch time: 14044.73049962 Element set: 256 Inclination: 098.5682 deg RA of node: 095.7870 deg Eccentricity: 0.0003241 Arg of perigee: 090.1856 deg Mean anomaly: 269.9693 deg Mean motion: 14.21908035 rev/day Decay rate: 3.1e-07 rev/day^2 Epoch rev: 22879 Checksum: 326
Satellite: RS-38 Catalog number: 35869 Epoch time: 14044.74760453 Element set: 204 Inclination: 098.5607 deg RA of node: 095.6461 deg Eccentricity: 0.0005745 Arg of perigee: 096.9850 deg Mean anomaly: 042.5713 deg Mean motion: 14.22179298 rev/day Decay rate: 4.9e-07 rev/day^2 Epoch rev: 22882 Checksum: 334
Satellite: JUGNU Catalog number: 37839 Epoch time: 14044.04874366 Element set: 561 Inclination: 019.9608 deg RA of node: 287.2774 deg Eccentricity: 0.0019080 Arg of perigee: 056.6421 deg Mean anomaly: 085.3684 deg Mean motion: 14.12246039 rev/day Decay rate: 4.79e-06 rev/day^2 Epoch rev: 12098 Checksum: 320
Satellite: SRMSAT Catalog number: 37841 Epoch time: 14044.15368000 Element set: 561 Inclination: 019.9719 deg RA of node: 303.4802 deg Eccentricity: 0.0011937 Arg of perigee: 002.3450 deg Mean anomaly: 129.7945 deg Mean motion: 14.10298920 rev/day Decay rate: 4.29e-06 rev/day^2 Epoch rev: 12082 Checksum: 272
Satellite: RAX-2 Catalog number: 37853 Epoch time: 14044.85888545 Element set: 723 Inclination: 101.7127 deg RA of node: 015.9451 deg Eccentricity: 0.0225227 Arg of perigee: 053.0814 deg Mean anomaly: 001.8273 deg Mean motion: 14.86755543 rev/day Decay rate: 1.3570e-04 rev/day^2 Epoch rev: 12431 Checksum: 293
Satellite: AUBIESAT Catalog number: 37854 Epoch time: 14044.48777098 Element set: 706 Inclination: 101.7166 deg RA of node: 016.8508 deg Eccentricity: 0.0224269 Arg of perigee: 051.9448 deg Mean anomaly: 065.2755 deg Mean motion: 14.87772969 rev/day Decay rate: 1.5694e-04 rev/day^2 Epoch rev: 12429 Checksum: 349
